Location: Rounton
(54.4000°N, 1.3500°W)
Time: 18:37:12
(UTC+00:00)

Altair - Pass Details

Date: 07 December 2021
Orbit: 1501 x 1683 km, 47.2° (Epoch: 16 January)

Event Time Altitude Azimuth Distance (km) Brightness Sun altitude
Rises 14:03:35 0° 206° (SSW) 4,806 12.6 8.3°
Reaches altitude 10° 14:07:16 10° 195° (SSW) 3,795 11.6 8.0°
Maximum altitude 14:14:56 28° 142° (SE) 2,591 9.1 7.4°
Drops below altitude 10° 14:22:25 10° 88° (E) 3,698 9.2 6.8°
Sets 14:25:56 0° 77° (ENE) 4,664 9.6 6.6°
